[[{"header":{"parameterUnit":"m.s-1","parameterCategory":1,"la1":30.2991,"la2":30.254,"lo1":-89.0895,"lo2":-89.0444,"dy":0.0017,"dx":0.0017,"nx":28,"ny":28,"refTime":"2025-04-30T21:00:00:Z","depth":0,"parameterNumber":2,"parameterNumberName":"U-component_of_WINDS"},"data":[0,0,0,0,0,0,0,0,0,0,0,0,0,0,0,0,0,0,0,0,0,0,0,0,0,0,0,0,0,0,0,0,0,0,0,0,0,0,0,0,0,0,0,0,0,0,0,0,0,0,0,0,0,0,0,0,0,0,-2.1215,-2.1216,0,-2.1309,-2.131,-2.1311,-2.1337,-2.1337,-2.1336,-2.1335,-2.1437,-2.144,-2.1443,0,0,0,0,0,0,0,0,0,0,0,0,0,-2.1061,-2.1064,-2.1215,-2.1216,-2.1217,-2.1309,-2.131,-2.1312,-2.1337,-2.1337,-2.1336,-2.1335,-2.1436,-2.1439,-2.1443,0,0,0,0,0,0,0,0,0,0,0,0,0,-2.1139,-2.1065,-2.1215,-2.1241,-2.1244,-2.1309,-2.1311,-2.1312,-2.1337,-2.1337,-2.1336,-2.1335,-2.1434,-2.1439,-2.1444,-2.149,0,0,-2.1458,-2.1461,0,0,0,0,0,0,0,0,-2.1135,-2.1145,-2.1236,-2.1239,-2.1243,-2.131,-2.1293,-2.1372,-2.1338,-2.1302,-2.1335,-2.1334,-2.1396,-2.1404,-2.1423,-2.1495,-2.15,-2.1459,-2.1462,-2.1464,-2.1465,0,0,0,0,0,0,0,-2.1129,-2.1141,-2.1252,-2.1237,-2.1242,-2.1249,-2.126,-2.1308,-2.1353,-2.1305,-2.1307,-2.1318,-2.1397,-2.1419,-2.1426,-2.1501,-2.1459,-2.1463,-2.1466,-2.1468,-2.1617,-2.1618,0,0,0,0,0,0,-2.1119,-2.1136,-2.1249,-2.1255,-2.1185,-2.1253,-2.1264,-2.129,-2.1352,-2.1361,-2.1318,-2.1319,-2.1411,-2.142,-2.1429,-2.1489,-2.1464,-2.1468,-2.1471,-2.1616,-2.1617,-2.1619,0,0,0,0,0,0,-2.1115,-2.1128,-2.1246,-2.1196,-2.1212,-2.1256,-2.1285,-2.1292,-2.1313,-2.1362,-2.1371,-2.1332,-2.141,-2.1423,-2.1475,-2.1493,-2.1471,-2.1475,-2.1615,-2.1617,-2.1618,-2.1608,0,0,0,0,0,0,-2.1111,-2.1127,-2.1144,-2.1196,-2.1214,-2.1288,-2.1286,-2.1295,-2.1321,-2.1322,-2.1377,-2.1385,-2.1411,-2.1468,-2.148,-2.1499,-2.1479,-2.1614,-2.1616,-2.1617,-2.1607,-2.1609,-2.1611,0,0,0,0,0,-2.1105,-2.1139,-2.1145,-2.1159,-2.1236,-2.1289,-2.13,-2.1327,-2.1322,-2.1341,-2.1372,-2.1383,-2.1489,-2.1473,-2.1487,-2.1508,-2.1613,-2.1615,-2.1617,-2.1606,-2.1609,-2.1611,0,0,0,0,0,0,-2.1089,-2.1146,-2.1154,-2.1205,-2.1242,-2.1293,-2.1318,-2.1329,-2.1369,-2.1369,-2.1403,-2.1415,-2.1465,-2.1492,-2.1473,-2.1557,-2.1551,-2.1556,-2.1538,-2.1541,-2.1543,-2.1536,-2.1483,0,0,0,0,0,-2.1091,-2.1128,-2.1176,-2.1217,-2.1235,-2.1273,-2.1297,-2.1315,-2.1355,-2.1371,-2.1407,-2.1447,-2.1489,-2.1516,-2.1558,-2.1611,-2.1624,-2.1632,-2.1634,-2.1636,-2.164,-2.1671,-2.1676,-2.1626,-2.1626,-2.1626,0,0,-2.1097,-2.1132,-2.1154,-2.1214,-2.1245,-2.1284,-2.1286,-2.1327,-2.1356,-2.1378,-2.1429,-2.1457,-2.1504,-2.1557,-2.1582,-2.158,-2.1657,-2.1639,-2.1639,-2.1643,-2.1674,-2.1679,-2.1683,-2.1628,-2.1628,-2.1628,0,0,-2.1127,-2.1157,-2.1194,-2.1224,-2.127,-2.1295,-2.1304,-2.1354,-2.1372,-2.1424,-2.1441,-2.1478,-2.1549,-2.1582,-2.1609,-2.165,-2.1663,-2.1663,-2.1674,-2.1704,-2.1708,-2.1711,-2.1728,-2.1733,-2.1667,-2.1667,-2.1667,0,-2.1129,-2.1186,-2.1212,-2.1252,-2.1279,-2.1298,-2.1337,-2.1366,-2.1424,-2.1442,-2.1439,-2.153,-2.1563,-2.1624,-2.1634,-2.1655,-2.1667,-2.1658,-2.1705,-2.1709,-2.1713,-2.1728,-2.1734,-2.1667,-2.1667,-2.1667,-2.1667,0,-2.1186,-2.1226,-2.1251,-2.1304,-2.1333,-2.1373,-2.1406,-2.1433,-2.1448,-2.1474,-2.1527,-2.1567,-2.1617,-2.1633,-2.1649,-2.1697,-2.1695,-2.1698,-2.1693,-2.1717,-2.1732,-2.1738,-2.1667,-2.1667,-2.1667,-2.1667,0,0,-2.1211,-2.1277,-2.1286,-2.1311,-2.1362,-2.1394,-2.1434,-2.1482,-2.1505,-2.1544,-2.158,-2.164,-2.1643,-2.1672,-2.1692,-2.1718,-2.175,-2.1718,-2.172,-2.1724,-2.1807,-2.1806,-2.1812,-2.1758,-2.1759,-2.176,-2.1804,0,-2.1248,-2.1319,-2.1344,-2.1404,-2.1441,-2.146,-2.1495,-2.1532,-2.1556,-2.1593,-2.1622,-2.1664,-2.1664,-2.1682,-2.1708,-2.174,-2.1768,-2.1737,-2.1794,-2.1795,-2.1782,-2.182,-2.1819,-2.1858,-2.181,-2.1811,-2.1812,0,-2.1302,-2.134,-2.1403,-2.1449,-2.1466,-2.1497,-2.1543,-2.1577,-2.1619,-2.1636,-2.1668,-2.1686,-2.173,-2.1721,-2.1784,-2.1763,-2.1788,-2.1807,-2.1809,-2.1817,-2.1806,-2.183,-2.1871,-2.1878,-2.1821,-2.1821,-2.182,0,-2.1315,-2.1382,-2.1428,-2.1448,-2.1504,-2.1525,-2.155,-2.1591,-2.1618,-2.1658,-2.1676,-2.1722,-2.1747,-2.1783,-2.1813,-2.1803,-2.1874,-2.1867,-2.189,-2.189,-2.1906,-2.1904,-2.1953,-2.1918,-2.1918,-2.1918,-2.1918,0,-2.1356,-2.1394,-2.1435,-2.1463,-2.1507,-2.1535,-2.1578,-2.1604,-2.164,-2.1675,-2.1694,-2.1727,-2.1764,-2.1802,-2.1826,-2.1876,-2.1887,-2.1903,-2.1909,-2.1902,-2.19,-2.1919,-2.1918,-2.192,-2.192,-2.1919,-2.1919,0,-2.1379,-2.1407,-2.1459,-2.1506,-2.1519,-2.1549,-2.1591,-2.162,-2.1645,-2.169,-2.1702,-2.1742,-2.1788,-2.1821,-2.1881,-2.1897,-2.1951,-2.1956,-2.1936,-2.1939,-2.1961,-2.1959,-2.2025,-2.2036,-2.1993,-2.1993,-2.1993,0,-2.1403,-2.1433,-2.1482,-2.1506,-2.153,-2.1569,-2.1596,-2.1624,-2.1652,-2.1702,-2.1726,-2.1773,-2.1812,-2.1885,-2.1921,-2.1967,-2.1975,-2.1994,-2.1982,-2.1974,-2.1977,-2.1976,-2.1979,-2.1997,-2.1997,-2.1997,-2.1998,0,-2.1445,-2.1457,-2.1494,-2.1536,-2.1568,-2.1603,-2.1639,-2.1658,-2.1693,-2.1723,-2.177,-2.18,-2.186,-2.1907,-2.1957,-2.1984,-2.1998,-2.2001,-2.2009,-2.2003,-2.1991,-2.2,-2.1943,-2.2,-2.2,-2.1999,-2.1999,-2.1999,-2.1471,-2.1498,-2.1537,-2.1578,-2.1607,-2.1639,-2.1669,-2.1697,-2.1736,-2.1786,-2.18,-2.1849,-2.1891,-2.1958,-2.1986,-2.2026,-2.2025,-2.2036,-2.204,-2.2043,-2.2043,-2.1983,-2.2035,-2.2035,-2.2035,-2.2035,-2.2035,0,-2.1515,-2.154,-2.1577,-2.1625,-2.1658,-2.1664,-2.1704,-2.1732,-2.1773,-2.181,-2.1848,-2.1901,-2.1947,-2.1985,-2.2033,-2.2058,-2.2065,-2.2069,-2.2069,-2.2075,-2.204,-2.2029,-2.2062,-2.2062,-2.2062,-2.2062,-2.2062,-2.2062,-2.1541,-2.1588,-2.1604,-2.1666,-2.1692,-2.1737,-2.176,-2.179,-2.182,-2.1878,-2.1915,-2.1939,-2.1978,-2.2028,-2.2071,-2.2081,-2.2099,-2.2102,-2.2114,-2.2081,-2.2078,-2.2075,-2.2064,-2.2105,-2.2105,-2.2146,-2.2146,-2.2146]},{"header":{"parameterUnit":"m.s-1","parameterCategory":1,"la1":30.2991,"la2":30.254,"lo1":-89.0895,"lo2":-89.0444,"dy":0.0017,"dx":0.0017,"nx":28,"ny":28,"refTime":"2025-04-30T21:00:00:Z","depth":0,"parameterNumber":3,"parameterNumberName":"V-component_of_WINDS"},"data":[0,0,0,0,0,0,0,0,0,0,0,0,0,0,0,0,0,0,0,0,0,0,0,0,0,0,0,0,0,0,0,0,0,0,0,0,0,0,0,0,0,0,0,0,0,0,0,0,0,0,0,0,0,0,0,0,0,0,7.3477,7.3479,0,7.3598,7.3599,7.36,7.357,7.3568,7.3565,7.3563,7.3676,7.3681,7.3687,0,0,0,0,0,0,0,0,0,0,0,0,0,7.3209,7.3214,7.3477,7.3479,7.348,7.3597,7.3599,7.3601,7.357,7.3568,7.3565,7.3562,7.3675,7.3681,7.3687,0,0,0,0,0,0,0,0,0,0,0,0,0,7.3327,7.3216,7.3477,7.348,7.3481,7.3597,7.3599,7.3601,7.3571,7.3568,7.3564,7.3561,7.3673,7.368,7.3688,7.3806,0,0,7.3712,7.3715,0,0,0,0,0,0,0,0,7.332,7.3337,7.3478,7.348,7.3482,7.3566,7.3546,7.3669,7.3572,7.3537,7.3563,7.3559,7.3642,7.3652,7.3682,7.3811,7.3816,7.3712,7.3717,7.372,7.3723,0,0,0,0,0,0,0,7.3312,7.3331,7.3525,7.348,7.3482,7.3471,7.3484,7.3569,7.3607,7.3539,7.3538,7.3553,7.3642,7.3674,7.3684,7.3818,7.3712,7.3719,7.3724,7.3727,7.4044,7.4047,0,0,0,0,0,0,7.3304,7.3325,7.3521,7.3528,7.3391,7.3478,7.3493,7.3542,7.3606,7.3613,7.3556,7.3551,7.3663,7.3675,7.3688,7.3826,7.372,7.3728,7.3732,7.404,7.4045,7.4049,0,0,0,0,0,0,7.3299,7.3322,7.3516,7.3426,7.345,7.3487,7.3542,7.3546,7.3578,7.3618,7.3624,7.3583,7.366,7.3677,7.3776,7.383,7.3731,7.3738,7.4036,7.4042,7.4047,7.4107,0,0,0,0,0,0,7.3291,7.332,7.3368,7.3428,7.3455,7.3606,7.3546,7.3551,7.3593,7.3588,7.3645,7.3651,7.3659,7.3765,7.3784,7.3839,7.3744,7.4031,7.4038,7.4045,7.41,7.4114,7.4125,0,0,0,0,0,7.3282,7.3379,7.3371,7.3395,7.3517,7.3609,7.3624,7.3635,7.3598,7.3644,7.3669,7.3649,7.3822,7.3775,7.3797,7.3855,7.4028,7.4036,7.4044,7.4094,7.4111,7.4125,0,0,0,0,0,0,7.3323,7.3387,7.3379,7.35,7.355,7.3604,7.3663,7.3653,7.3712,7.3704,7.3711,7.3724,7.3824,7.385,7.3797,7.3969,7.3919,7.3932,7.3949,7.3965,7.3978,7.3968,7.3751,0,0,0,0,0,7.3347,7.342,7.3471,7.3572,7.3598,7.3627,7.3667,7.3671,7.3721,7.3741,7.3774,7.382,7.3884,7.3927,7.3989,7.4104,7.4113,7.4154,7.4167,7.4177,7.4187,7.4245,7.4263,7.4077,7.4076,7.4076,0,0,7.3395,7.344,7.3485,7.3582,7.3621,7.3692,7.3644,7.3723,7.3775,7.3752,7.3848,7.3873,7.3925,7.4032,7.408,7.4056,7.4241,7.4188,7.4196,7.42,7.4256,7.4273,7.4289,7.4082,7.4081,7.408,0,0,7.352,7.3563,7.365,7.3691,7.3751,7.3769,7.379,7.3846,7.3862,7.3959,7.3942,7.4002,7.4114,7.415,7.4184,7.4319,7.4301,7.4339,7.4404,7.4461,7.4475,7.4488,7.4532,7.4549,7.435,7.435,7.435,0,7.3572,7.3683,7.3696,7.3776,7.3816,7.3802,7.3887,7.3924,7.4,7.4026,7.3999,7.4137,7.4171,7.4284,7.4317,7.4346,7.4366,7.4331,7.4473,7.4486,7.4498,7.454,7.4557,7.4354,7.4353,7.4353,7.4353,0,7.3741,7.3818,7.388,7.3957,7.4004,7.4086,7.4107,7.4153,7.4152,7.4171,7.4266,7.4308,7.4375,7.4403,7.4402,7.4514,7.4497,7.4472,7.442,7.4519,7.4559,7.4575,7.4359,7.4358,7.4357,7.4356,0,0,7.3896,7.3977,7.3999,7.4032,7.4096,7.4153,7.4232,7.4301,7.4338,7.4391,7.4454,7.4548,7.4524,7.4561,7.4564,7.4614,7.4713,7.4582,7.4583,7.4601,7.4834,7.4851,7.487,7.4703,7.4706,7.4709,7.4829,0,7.4023,7.4167,7.4178,7.4305,7.4373,7.4359,7.4427,7.4471,7.449,7.4547,7.4567,7.4632,7.4598,7.462,7.4669,7.4691,7.4759,7.4683,7.4757,7.476,7.4742,7.4891,7.491,7.5021,7.4845,7.4847,7.4849,0,7.4192,7.425,7.4385,7.4436,7.4465,7.4526,7.4588,7.4645,7.4692,7.4702,7.4744,7.4739,7.4815,7.4763,7.4865,7.4813,7.4843,7.4858,7.4863,7.4868,7.4808,7.4896,7.5058,7.5073,7.4874,7.4872,7.4871,0,7.4286,7.4399,7.4492,7.4521,7.4584,7.4627,7.4654,7.4699,7.4739,7.4791,7.4816,7.4876,7.4908,7.4953,7.4963,7.4925,7.5063,7.5013,7.507,7.507,7.5098,7.5095,7.5263,7.5123,7.5123,7.5123,7.5123,0,7.4425,7.4507,7.4535,7.4592,7.4681,7.4692,7.4779,7.4803,7.4843,7.4901,7.4892,7.4946,7.4957,7.5012,7.502,7.5101,7.5116,7.5123,7.5123,7.5122,7.5121,7.514,7.5132,7.5127,7.5126,7.5125,7.5125,0,7.4545,7.4568,7.4669,7.472,7.4735,7.4798,7.4839,7.4892,7.491,7.4983,7.5001,7.5027,7.5091,7.5106,7.5182,7.5187,7.5282,7.5276,7.5266,7.5265,7.5319,7.5312,7.5503,7.5526,7.5374,7.5376,7.5377,0,7.4632,7.4694,7.4752,7.4792,7.4822,7.4886,7.4926,7.4938,7.4979,7.5036,7.5081,7.5144,7.5195,7.5297,7.5321,7.5378,7.5371,7.5434,7.538,7.5375,7.5368,7.5363,7.5367,7.5443,7.5445,7.5446,7.5447,0,7.4781,7.4789,7.4849,7.4912,7.496,7.5009,7.5056,7.5088,7.5105,7.5151,7.5218,7.5258,7.5335,7.5396,7.5453,7.5476,7.5463,7.5465,7.548,7.5478,7.5468,7.547,7.5291,7.546,7.5458,7.5458,7.5457,7.5456,7.4885,7.4938,7.4986,7.5052,7.5088,7.5132,7.5183,7.5207,7.5263,7.5329,7.5331,7.5402,7.5444,7.5519,7.5546,7.5599,7.5579,7.5602,7.5607,7.5612,7.5615,7.5462,7.5609,7.5609,7.5609,7.5608,7.5608,0,7.5031,7.5061,7.5121,7.5187,7.5237,7.5224,7.5274,7.5315,7.5379,7.5421,7.5471,7.5545,7.5603,7.5631,7.5688,7.5725,7.572,7.5739,7.5735,7.5739,7.5632,7.5611,7.5742,7.5742,7.5742,7.5742,7.5742,7.5742,7.5112,7.52,7.5213,7.5317,7.5345,7.5417,7.5446,7.5483,7.5516,7.56,7.5649,7.5668,7.5702,7.5761,7.5813,7.5819,7.5839,7.586,7.5863,7.5761,7.5748,7.5735,7.5715,7.5865,7.5865,7.5966,7.5967,7.5967]}]]